Tracking 17855 objects as of 26-September-2016
HD Live streaming from Space Station
objects crossing your sky now

METEOR 2-6 DEB

Track METEOR 2-6 DEB now!
10-day predictions


NORAD ID: 31406
Int'l Code: 1980-073H
Perigee: 791.4 km
Apogee: 862.1 km
Inclination: 81.2 °
Period: 101.3 minutes
Semi major axis: 7197 km
RCS: 0.0145 m2 (small)
Launch date: September 9, 1980
Source: Commonwealth of Independent States (former USSR) (CIS)
Launch site: PLESETSK MISSILE AND SPACE COMPLEX (PKMTR)

Note: This is SATELLITE DEBRIS
Your satellite tracking list
Your tracking list is empty





NASA's NSSDC Master Catalog

Two Line Element Set (TLE):
1 31406U 80073H   16269.78227131  .00000719  00000-0  31753-3 0  9996
2 31406  81.2199 292.4164 0049172  37.7215 322.7393 14.21698235510008
Source of the keplerian elements: AFSPC

N2YO: 458